Meerawa, Australia

6:26 PM AEST on April 21, 2018 (GMT +1000)
Meerawa

Weather History for 94287 - December, 2012

Change the Weather History Date:

Wednesday, December 12, 2012

  Actual Average Record
Temperature  
Mean Temperature 81 °F -  
Max Temperature 89 °F 88 °F - ()
Min Temperature 73 °F 74 °F - ()
Cooling Degree Days 16    
Growing Degree Days 31 (Base 50)    
Moisture  
Dew Point 67 °F    
Average Humidity 64    
Maximum Humidity 88    
Minimum Humidity 36    
Precipitation  
Precipitation 0.01 in 0.36 in - ()
Sea Level Pressure  
Sea Level Pressure 29.89 in    
Wind  
Wind Speed 12 mph ()    
Max Wind Speed 23 mph    
Max Gust Speed 33 mph    
Visibility 6.6 miles    
Events Rain    
T = Trace of Precipitation, MM = Missing Value Source: Averaged Metar Reports

Daily Weather History Graph

Daily Weather History Graph

Search for Another Location

Airport or City:

Astronomy

Dec. 12, 2012 Rise Set
Actual Time 5:37 AM AEST 6:44 PM AEST
Civil Twilight 5:13 AM AEST 7:08 PM AEST
Nautical Twilight 4:44 AM AEST 7:36 PM AEST
Astronomical Twilight 4:15 AM AEST 8:05 PM AEST
Moon 4:10 AM AEST (12/12) 5:32 PM AEST (12/12)
Length of Visible Light 13h 55m
Length of Day
13h 07m
Waning Crescent, 2% of the Moon is Illuminated
Dec 12
Waning Crescent
Dec 13
New
Dec 20
First Quarter
Dec 28
Full
Jan 5
Last Quarter

Hourly Weather History & Observations

Time (AEST) Temp. Heat Index Dew Point Humidity Pressure Visibility Wind Dir Wind Speed Gust Speed Precip Events Conditions
12:00 AM 77 °F - 67 °F 64% 29.92 in - South 10.4 mph - -  
12:00 AM 77.0 °F - 66.2 °F 69% 29.92 in 6.2 mi South 10.4 mph - N/A   Partly Cloudy
12:30 AM 77.0 °F - 68.0 °F 74% 29.89 in 6.2 mi SSE 8.1 mph - N/A Rain Light Rain Showers
1:00 AM 76 °F - 68 °F 70% 29.90 in - SSE 9.2 mph - -  
1:00 AM 75.2 °F - 68.0 °F 78% 29.89 in 6.2 mi SSE 9.2 mph - N/A   Partly Cloudy
1:30 AM 77.0 °F - 68.0 °F 74% 29.86 in 6.2 mi SSE 10.4 mph - N/A   Partly Cloudy
2:00 AM 77.0 °F - 68.0 °F 74% 29.86 in 6.2 mi South 10.4 mph - N/A   Scattered Clouds
2:30 AM 77.0 °F - 68.0 °F 74% 29.86 in 6.2 mi South 10.4 mph - N/A   Mostly Cloudy
3:00 AM 74 °F - 69 °F 80% 29.87 in - South 13.8 mph - -   Overcast
3:00 AM 73.4 °F - 69.8 °F 88% 29.86 in 6.2 mi South 13.8 mph - N/A   Scattered Clouds
3:30 AM 75.2 °F - 68.0 °F 78% 29.86 in 6.2 mi South 10.4 mph - N/A   Scattered Clouds
4:00 AM 76 °F - 68 °F 69% 29.88 in - South 11.5 mph - -  
4:00 AM 75.2 °F - 68.0 °F 78% 29.86 in 6.2 mi South 11.5 mph - N/A   Scattered Clouds
4:30 AM 75.2 °F - 68.0 °F 78% 29.86 in 6.2 mi South 12.7 mph - N/A   Scattered Clouds
5:00 AM 75.2 °F - 68.0 °F 78% 29.86 in 6.2 mi South 10.4 mph - N/A   Scattered Clouds
5:30 AM 75.2 °F - 68.0 °F 78% 29.89 in 6.2 mi South 9.2 mph - N/A   Mostly Cloudy
6:00 AM 76 °F - 67 °F 68% 29.90 in 16 mi South 10.4 mph - -   Partly Cloudy
6:00 AM 75.2 °F - 68.0 °F 78% 29.89 in 6.2 mi South 10.4 mph - N/A   Mostly Cloudy
6:30 AM 77.0 °F - 68.0 °F 74% 29.92 in 6.2 mi South 10.4 mph - N/A   Mostly Cloudy
7:00 AM 77 °F - 68 °F 67% 29.94 in - South 9.2 mph - -  
7:00 AM 77.0 °F - 68.0 °F 74% 29.92 in 6.2 mi South 9.2 mph - N/A   Mostly Cloudy
7:30 AM 78.8 °F - 68.0 °F 69% 29.92 in 6.2 mi South 11.5 mph - N/A   Mostly Cloudy
8:00 AM 78.8 °F - 69.8 °F 74% 29.92 in 6.2 mi SSE 10.4 mph - N/A   Mostly Cloudy
8:30 AM 78.8 °F - 69.8 °F 74% 29.95 in 6.2 mi South 9.2 mph - N/A   Mostly Cloudy
9:00 AM 80 °F - 71 °F 67% 29.95 in 16 mi South 8.1 mph - - Rain Light Rain Showers
9:00 AM 78.8 °F - 71.6 °F 78% 29.95 in 6.2 mi South 8.1 mph - N/A   Scattered Clouds
9:30 AM 84.2 °F 88.4 °F 69.8 °F 62% 29.95 in 6.2 mi SSE 15.0 mph - N/A   Mostly Cloudy
10:00 AM 86 °F - 67 °F 43% 29.94 in - SE 19.6 mph - -  
10:00 AM 86.0 °F 88.2 °F 66.2 °F 51% 29.92 in 6.2 mi SE 19.6 mph - N/A   Mostly Cloudy
10:30 AM 87.8 °F 90.4 °F 66.2 °F 49% 29.92 in 6.2 mi SE 18.4 mph - N/A   Mostly Cloudy
11:00 AM 80.6 °F 84.6 °F 71.6 °F 74% 29.92 in 6.2 mi SSE 17.3 mph - N/A   Scattered Clouds
11:44 AM 82.4 °F 86.3 °F 69.8 °F 66% 29.92 in 6.2 mi ESE 18.4 mph 33.4 mph N/A Rain Light Rain Showers
12:00 PM 86 °F - 68 °F 46% 29.91 in - ESE 19.6 mph - -  
12:00 PM 86.0 °F 89.4 °F 68.0 °F 55% 29.92 in 4.3 mi ESE 19.6 mph - N/A   Mostly Cloudy
12:30 PM 82.4 °F 86.3 °F 69.8 °F 66% 29.89 in 6.2 mi SE 18.4 mph - N/A   Scattered Clouds
1:00 PM 89 °F - 66 °F 37% 29.89 in - SE 16.1 mph - -  
1:00 PM 87.8 °F 90.4 °F 66.2 °F 49% 29.89 in 6.2 mi SE 16.1 mph - N/A   Scattered Clouds
1:30 PM 87.8 °F 90.4 °F 66.2 °F 49% 29.86 in 6.2 mi ESE 20.7 mph - N/A   Partly Cloudy
2:00 PM 87.8 °F 89.4 °F 64.4 °F 46% 29.86 in 6.2 mi ESE 23.0 mph - N/A   Partly Cloudy
2:30 PM 89.6 °F 89.5 °F 60.8 °F 38% 29.83 in 6.2 mi SE 23.0 mph - N/A   Partly Cloudy
3:00 PM 88 °F - 65 °F 36% 29.85 in - SE 23.0 mph - -  
3:00 PM 87.8 °F 89.4 °F 64.4 °F 46% 29.83 in 6.2 mi SE 23.0 mph - N/A   Partly Cloudy
3:30 PM 86.0 °F 88.2 °F 66.2 °F 51% 29.83 in 6.2 mi SE 21.9 mph - N/A   Partly Cloudy
4:00 PM 85 °F - 65 °F 42% 29.86 in - SE 20.7 mph - -  
4:00 PM 84.2 °F 86.6 °F 66.2 °F 55% 29.83 in 6.2 mi SE 20.7 mph - N/A   Partly Cloudy
4:30 PM 84.2 °F 85.6 °F 64.4 °F 51% 29.83 in 6.2 mi SE 19.6 mph - N/A   Partly Cloudy
5:00 PM 84.2 °F 85.6 °F 64.4 °F 51% 29.83 in 6.2 mi SSE 21.9 mph - N/A   Partly Cloudy
5:30 PM 84.2 °F 85.6 °F 64.4 °F 51% 29.86 in 6.2 mi SE 18.4 mph - N/A   Partly Cloudy
6:00 PM 82 °F - 66 °F 49% 29.86 in - SE 15.0 mph - -  
6:00 PM 82.4 °F 84.6 °F 66.2 °F 58% 29.86 in 6.2 mi SE 15.0 mph - N/A   Partly Cloudy
6:30 PM 80.6 °F 82.7 °F 66.2 °F 61% 29.86 in 6.2 mi SE 15.0 mph - N/A   Partly Cloudy
7:00 PM 80 °F - 67 °F 56% 29.88 in - SE 16.1 mph - -  
7:00 PM 80.6 °F 83.2 °F 68.0 °F 65% 29.86 in 6.2 mi SE 16.1 mph - N/A   Partly Cloudy
7:30 PM 78.8 °F - 68.0 °F 69% 29.89 in 6.2 mi SE 12.7 mph - N/A   Partly Cloudy
8:00 PM 78.8 °F - 68.0 °F 69% 29.89 in 6.2 mi SSE 11.5 mph - N/A   Partly Cloudy
8:30 PM 78.8 °F - 68.0 °F 69% 29.89 in 6.2 mi South 8.1 mph - N/A   Partly Cloudy
9:00 PM 78 °F - 67 °F 62% 29.90 in - SSE 8.1 mph - -  
9:00 PM 77.0 °F - 68.0 °F 74% 29.89 in 6.2 mi SSE 8.1 mph - N/A   Partly Cloudy
9:30 PM 77.0 °F - 68.0 °F 74% 29.92 in 6.2 mi South 8.1 mph - N/A   Partly Cloudy
10:00 PM 77 °F - 68 °F 68% 29.93 in - South 8.1 mph - -  
10:00 PM 77.0 °F - 68.0 °F 74% 29.92 in 6.2 mi South 8.1 mph - N/A   Partly Cloudy
10:30 PM 78.8 °F - 68.0 °F 69% 29.92 in 6.2 mi South 9.2 mph - N/A   Scattered Clouds
11:00 PM 77.0 °F - 68.0 °F 74% 29.92 in 6.2 mi South 9.2 mph - N/A   Scattered Clouds
11:30 PM 77.0 °F - 68.0 °F 74% 29.92 in 6.2 mi South 9.2 mph - N/A   Partly Cloudy